Location: Newark
(33.6439°N, 114.9881°W)
Time: 08:43:13
(UTC+00:00)

A-11 Canister half - Pass Details

Date: 29 August 2019
Orbit: 1527 x 1682 km, 47.3° (Epoch: 15 October)

Event Time Altitude Azimuth Distance (km) Brightness Sun altitude
Rises 15:55:28 0° 212° (SSW) 4,739 11.4 33.0°
Reaches altitude 10° 15:58:35 10° 208° (SSW) 3,777 11.0 33.6°
Maximum altitude 16:07:51 54° 134° (SE) 1,903 10.9 35.5°
Drops below altitude 10° 16:17:26 10° 60° (ENE) 3,905 11.8 37.4°
Sets 16:20:42 0° 56° (ENE) 4,910 12.1 38.1°
